CZ-6A DEB, 56588

Orbit data source: Space-Track

CZ-6A DEB, 56588 is space debris in SSO originally from a launch on Fri, 11 Nov 2022 UTC launched from the Taiyaun Space Center, China (TSC). Debris objects in space refer to the collection of defunct objects orbiting the Earth. Examples of debris include non-operational satellites, rocket bodies, and fragments generated from explosions, collisions, or faulty payload assembly.

Loading next visibility...
Identifier
56588, 2022-151ADL
Orbit
SSO
Country
Flag of CNCN / PRC
Related business
Manufacturer
SAST
Mission
Spacecraft
Bus & Motor
Unknown
Mass
Unknown
Launch date (UTC)
2022-11-11 (4 years ago)
Launch vehicle
Unknown
Launch site
Taiyaun Space Center, China (TSC)
Object type
Payload
Rocket body
Debris
Shape & HBR
Unknown shape, 0.1 m
Radar Cross Section
Small (<0.1 m²)

Expand to show TLE details & history
Last TLE update: 3 days ago

TLE from 3 days ago
0 CZ-6A DEB
1 56588U 22151ADL 26170.20050330  .00014445  00000-0  19183-2 0  9994
2 56588  98.6217 250.3409 0060859 155.8317 204.5769 14.78598250177803
Epoch: 2026-06-19T04:48Z
TLE epoch observation values (Epoch: 2026-06-19T04:48:43.485Z)
Latitude
0.00003°
Longitude
-89.27318°
Altitude
675.61 km
Speed
7.498 km/s
True Right ascension
16h 41m 21s
True Declination
0° 00' 00"
Sunlit
Object was in full shadow at epoch
Visualization orbit readout
Latitude
Unknown
Longitude
Unknown
Altitude
Unknown
Speed
Unknown
Apparent Right ascension
Unknown
Apparent Declination
Unknown
Sunlit
N/A
Visualization observer readout
Local Sidereal Time
21:38:12
Azimuth
Unknown
Elevation
Unknown
Doppler factor
Unknown
Orbital elements
Apogee altitude
673.484 km
Perigee altitude
588.173 km
Semi-major axis
7,008.966 km
Eccentricity
0.00609
Inclination
98.6217°
RAAN
250.3409°
Arg. of periapsis
155.8317°
True anomaly
204.28884°
Mean anomaly
204.5769°
Eccentric anomaly
204.43267°
Mean motion
3.69881 °/min
Orbital period
97.33 mins
BSTAR
0.0019183
Loading maneuver chart data...
Computing Atmospheric mass density...
Loading historical data...
Loading historical data...
Loading historical data...
Loading historical data...
Loading historical data...
Loading historical data...
Loading historical data...

Documentation

Showing up to 5 results
|